FW6971 Weather Reports


time (UTC)temp
C
wind
direction
speed
KPH
gust
KPH
rain 1hr
cm
rain 24hr
cm
rain mn
cm
humidity
%
barometer
mb
20260508043028 6 0 0.0 0.0 0.00 2.16 0.00 99 1001.3
20260508041528 6 0 0.0 0.0 0.00 2.16 0.00 99 1001.5
20260508040034 6 0 0.0 1.6 0.00 2.16 0.00 99 1001.6
20260508034535 6 252 0.0 6.4 0.00 2.16 0.00 99 1001.9
20260508033029 6 244 1.6 4.8 0.00 2.16 0.00 99 1001.9
20260508031527 6 242 4.8 9.7 0.00 2.16 0.00 99 1002.0
20260508030029 6 229 3.2 9.7 0.00 2.16 0.00 99 1002.3
20260508024528 6 248 4.8 11.3 0.00 2.16 2.16 99 1001.9
20260508023035 6 221 8.0 12.9 0.00 2.16 2.16 99 1001.8
20260508021527 6 236 4.8 12.9 0.00 2.16 2.16 99 1001.9
20260508020028 5 228 6.4 14.5 0.00 2.16 2.16 99 1002.1
20260508014528 5 225 9.7 16.1 0.00 2.16 2.16 99 1002.3
20260508013028 6 201 4.8 11.3 0.00 2.16 2.16 99 1002.2
20260508011529 6 175 3.2 9.7 0.00 2.16 2.16 99 1002.3
20260508010030 6 220 4.8 17.7 0.00 2.16 2.16 99 1002.0
20260508004606 6 200 8.0 19.3 0.00 2.16 2.16 99 1002.4
20260508004532 6 200 8.0 19.3 0.00 2.16 2.16 99 1002.4
20260508003032 6 207 8.0 17.7 0.00 2.16 2.16 99 1002.7
20260508001544 6 209 6.4 14.5 0.00 2.16 2.16 99 1002.7
20260508000027 6 196 6.4 20.9 0.00 2.16 2.16 99 1002.9
20260507234529 6 198 11.3 19.3 0.00 2.16 2.16 99 1003.0
20260507233034 6 195 9.7 22.5 0.00 2.16 2.16 98 1002.8
20260507231531 6 204 11.3 22.5 0.00 2.16 2.16 98 1003.1
20260507230035 6 221 8.0 20.9 0.00 2.16 2.16 98 1003.0
20260507224533 7 219 9.7 19.3 0.03 2.16 2.16 98 1003.1
20260507223027 7 240 6.4 17.7 0.03 2.16 2.16 99 1003.3
20260507221528 7 126 9.7 19.3 0.03 2.16 2.16 99 1003.3
20260507220031 7 217 6.4 17.7 0.13 2.16 2.16 99 1003.7
20260507214530 7 147 8.0 24.1 0.23 2.13 2.13 99 1003.4
20260507213036 7 136 9.7 16.1 0.41 2.13 2.13 99 1002.9
20260507211543 7 165 8.0 20.9 0.58 2.11 2.11 98 1003.8
20260507210028 7 221 8.0 25.7 0.76 2.03 2.03 99 1004.2
20260507204528 7 180 8.0 24.1 1.09 1.91 1.91 99 1004.5
20260507203028 7 174 6.4 24.1 1.12 1.70 1.70 98 1005.2
20260507201536 7 226 19.3 27.4 1.07 1.47 1.47 98 1005.3
20260507200034 7 135 11.3 30.6 0.91 1.24 1.24 98 1004.9
20260507194527 7 200 8.0 17.7 0.58 0.79 0.79 98 1005.5
20260507193028 7 94 9.7 29.0 0.41 0.56 0.56 98 1005.4
20260507191530 7 174 12.9 29.0 0.33 0.43 0.43 98 1005.6
20260507190028 7 173 11.3 30.6 0.25 0.30 0.30 98 1006.2
20260507184527 7 173 11.3 40.2 0.18 0.20 0.20 98 1006.0
20260507183032 7 177 14.5 37.0 0.10 0.13 0.13 98 1005.9
20260507181528 7 171 16.1 38.6 0.08 0.10 0.10 98 1006.1
20260507180043 7 136 14.5 38.6 0.03 0.05 0.05 98 1006.0
20260507174532 7 162 16.1 32.2 0.00 0.03 0.03 98 1006.3
20260507173030 7 184 16.1 33.8 0.00 0.03 0.03 98 1006.8
20260507171526 7 188 12.9 33.8 0.00 0.03 0.03 98 1007.1
20260507170044 7 196 17.7 37.0 0.00 0.03 0.03 98 1007.2
20260507164530 8 117 16.1 33.8 0.00 0.03 0.03 98 1007.6
20260507163027 8 196 16.1 38.6 0.00 0.03 0.03 98 1007.9
20260507161530 7 161 16.1 37.0 0.00 0.03 0.03 98 1008.3
20260507160029 7 164 12.9 30.6 0.00 0.03 0.03 98 1008.8
20260507154528 7 335 14.5 33.8 0.00 0.03 0.03 98 1009.2
20260507153027 7 207 11.3 35.4 0.00 0.03 0.03 98 1009.4
20260507151528 8 206 16.1 30.6 0.00 0.03 0.03 98 1009.8
20260507150028 7 207 12.9 35.4 0.03 0.03 0.03 98 1009.9
20260507144528 8 169 14.5 37.0 0.03 0.03 0.03 98 1010.2
20260507143030 8 155 12.9 32.2 0.03 0.03 0.03 98 1010.5
20260507141528 7 167 12.9 25.7 0.03 0.03 0.03 98 1011.1
20260507140035 7 177 17.7 37.0 0.00 0.00 0.00 97 1011.5
20260507134526 7 208 14.5 37.0 0.00 0.00 0.00 97 1011.4
20260507133028 8 184 19.3 37.0 0.00 0.00 0.00 97 1011.2
20260507131535 8 221 16.1 45.1 0.00 0.00 0.00 98 1011.5
20260507130031 7 180 16.1 35.4 0.00 0.00 0.00 98 1011.2
20260507124530 7 191 16.1 30.6 0.00 0.00 0.00 98 1011.8
20260507123028 7 179 16.1 27.4 0.00 0.00 0.00 97 1011.8
20260507121526 7 168 16.1 38.6 0.00 0.00 0.00 97 1012.6
20260507120028 7 201 14.5 33.8 0.00 0.00 0.00 97 1013.0
20260507114529 7 207 12.9 33.8 0.00 0.00 0.00 97 1013.2
20260507113028 7 173 12.9 35.4 0.00 0.00 0.00 98 1013.0
20260507111528 7 177 11.3 32.2 0.00 0.00 0.00 98 1013.3
20260507110031 8 153 12.9 33.8 0.00 0.00 0.00 98 1013.1
20260507104531 7 192 11.3 29.0 0.00 0.00 0.00 98 1013.2
20260507083026 6 335 11.3 20.9 0.00 0.00 0.00 97 1014.2
20260507081529 6 200 8.0 20.9 0.00 0.00 0.00 97 1014.0
20260507080027 6 210 9.7 24.1 0.00 0.00 0.00 96 1014.3
20260507074529 7 215 14.5 20.9 0.00 0.00 0.00 96 1014.4
20260507073027 7 248 12.9 27.4 0.00 0.00 0.00 96 1014.5
20260507071529 7 246 17.7 29.0 0.00 0.00 0.00 96 1014.7
20260507070028 7 204 11.3 30.6 0.00 0.00 0.00 96 1015.0
20260507064529 8 225 9.7 24.1 0.00 0.00 0.00 96 1015.1
20260507063027 8 206 14.5 29.0 0.00 0.00 0.00 96 1015.3
20260507061529 7 213 11.3 20.9 0.00 0.00 0.00 96 1015.6
20260507060026 8 171 11.3 19.3 0.00 0.00 0.00 97 1015.8
20260507054525 8 214 4.8 14.5 0.00 0.00 0.00 97 1016.0
20260507053030 8 215 6.4 16.1 0.00 0.00 0.00 97 1016.1
20260507051526 8 184 9.7 17.7 0.00 0.00 0.00 97 1016.6
20260507050040 8 335 6.4 16.1 0.00 0.00 0.00 97 1016.8
20260507044526 8 244 12.9 19.3 0.00 0.00 0.00 97 1017.1